Stations météo

Publicité
Moskva, Russie (27612): Température de l'air & dewpoint: 15.01.2018 06:00:00 - 21.01.2018 06:00:00 (MSK)Moskva, Russie (27612): Vitesse du vent: 15.01.2018 06:00:00 - 21.01.2018 06:00:00 (MSK)Moskva, Russie (27612): Direction du vent: 15.01.2018 06:00:00 - 21.01.2018 06:00:00 (MSK)Moskva, Russie (27612): reduced air pressure: 15.01.2018 06:00:00 - 21.01.2018 06:00:00 (MSK)Moskva, Russie (27612): visibility: 15.01.2018 06:00:00 - 21.01.2018 06:00:00 (MSK)
Date & Time tt [°C] td [°C] ff [km/h] ff [knt] dd ppp [hPa] vv [km]
21.01.2018 06:00:00 - - - - - - -
21.01.2018 05:00:00 - - - - - - -
21.01.2018 04:00:00 - - - - - - -
21.01.2018 03:00:00 -7,5 -8,9 4 2 ESE 1010,3 -
21.01.2018 02:00:00 - - - - - - -
21.01.2018 01:00:00 - - - - - - -
21.01.2018 00:00:00 -7,9 -9,4 4 2 SE 1010,7 -
20.01.2018 23:00:00 - - - - - - -
20.01.2018 22:00:00 - - - - - - -
20.01.2018 21:00:00 -7,9 -9,9 7 4 SSE 1010,9 -
20.01.2018 20:00:00 - - - - - - -
20.01.2018 19:00:00 - - - - - - -
20.01.2018 18:00:00 -8,1 -9,7 4 2 SE 1011,3 -
20.01.2018 17:00:00 - - - - - - -
20.01.2018 16:00:00 - - - - - - -
20.01.2018 15:00:00 -8,1 -9,8 4 2 ESE 1011,8 2,0
20.01.2018 14:00:00 - - - - - - -
20.01.2018 13:00:00 - - - - - - -
20.01.2018 12:00:00 -9,2 -11,7 7 4 ESE 1013,1 4,0
20.01.2018 11:00:00 - - - - - - -
20.01.2018 10:00:00 - - - - - - -
20.01.2018 09:00:00 -10,4 -12,5 7 4 ESE 1013,6 4,0
20.01.2018 08:00:00 - - - - - - -
20.01.2018 07:00:00 - - - - - - -
20.01.2018 06:00:00 -10,7 -12,9 4 2 ESE 1014,5 -
20.01.2018 05:00:00 - - - - - - -
20.01.2018 04:00:00 - - - - - - -
20.01.2018 03:00:00 -9,6 -16,1 7 4 SE 1015,4 -
20.01.2018 02:00:00 - - - - - - -
20.01.2018 01:00:00 - - - - - - -
20.01.2018 00:00:00 -8,7 -17,0 11 6 SE 1016,1 -
19.01.2018 23:00:00 - - - - - - -
19.01.2018 22:00:00 - - - - - - -
19.01.2018 21:00:00 -7,8 -16,3 11 6 SE 1016,0 -
19.01.2018 20:00:00 - - - - - - -
19.01.2018 19:00:00 - - - - - - -
19.01.2018 18:00:00 -8,3 -16,0 11 6 SE 1016,7 -
19.01.2018 17:00:00 - - - - - - -
19.01.2018 16:00:00 - - - - - - -
19.01.2018 15:00:00 -8,1 -13,5 7 4 SE 1015,8 10
19.01.2018 14:00:00 - - - - - - -
19.01.2018 13:00:00 - - - - - - -
19.01.2018 12:00:00 -8,6 -13,5 11 6 SE 1015,8 10
19.01.2018 11:00:00 - - - - - - -
19.01.2018 10:00:00 - - - - - - -
19.01.2018 09:00:00 -7,6 -13,7 7 4 SE 1014,5 10
19.01.2018 08:00:00 - - - - - - -
19.01.2018 07:00:00 - - - - - - -
19.01.2018 06:00:00 -5,4 -9,6 7 4 SSE 1013,0 -
19.01.2018 05:00:00 - - - - - - -
19.01.2018 04:00:00 - - - - - - -
19.01.2018 03:00:00 -2,6 -5,1 11 6 SSE 1012,3 -
19.01.2018 02:00:00 - - - - - - -
19.01.2018 01:00:00 - - - - - - -
19.01.2018 00:00:00 -3,4 -5,2 11 6 SSE 1012,2 -
18.01.2018 23:00:00 - - - - - - -
18.01.2018 22:00:00 - - - - - - -
18.01.2018 21:00:00 -4,6 -6,2 4 2 SSE 1011,6 -
18.01.2018 20:00:00 - - - - - - -
18.01.2018 19:00:00 - - - - - - -
18.01.2018 18:00:00 -5,7 -7,3 7 4 SSE 1011,5 -
18.01.2018 17:00:00 - - - - - - -
18.01.2018 16:00:00 - - - - - - -
18.01.2018 15:00:00 -6,6 -8,4 7 4 SSE 1010,9 4,0
18.01.2018 14:00:00 - - - - - - -
18.01.2018 13:00:00 - - - - - - -
18.01.2018 12:00:00 -7,7 -9,1 7 4 SE 1010,5 4,0
18.01.2018 11:00:00 - - - - - - -
18.01.2018 10:00:00 - - - - - - -
18.01.2018 09:00:00 -8,8 -10,2 7 4 SE 1010,4 1,0
18.01.2018 08:00:00 - - - - - - -
18.01.2018 07:00:00 - - - - - - -
18.01.2018 06:00:00 -9,5 -10,8 7 4 SE 1010,3 -
18.01.2018 05:00:00 - - - - - - -
18.01.2018 04:00:00 - - - - - - -
18.01.2018 03:00:00 -9,4 -11,9 7 4 SSE 1011,3 -
18.01.2018 02:00:00 - - - - - - -
18.01.2018 01:00:00 - - - - - - -
18.01.2018 00:00:00 -9,0 -11,1 11 6 SE 1012,3 -
17.01.2018 23:00:00 - - - - - - -
17.01.2018 22:00:00 - - - - - - -
17.01.2018 21:00:00 -7,1 -10,7 11 6 SE 1013,0 -
17.01.2018 20:00:00 - - - - - - -
17.01.2018 19:00:00 - - - - - - -
17.01.2018 18:00:00 -7,1 -9,5 11 6 SSE 1014,7 -
17.01.2018 17:00:00 - - - - - - -
17.01.2018 16:00:00 - - - - - - -
17.01.2018 15:00:00 -6,8 -9,2 7 4 SE 1015,9 10
17.01.2018 14:00:00 - - - - - - -
17.01.2018 13:00:00 - - - - - - -
17.01.2018 12:00:00 -6,7 -9,2 7 4 SE 1017,3 10
17.01.2018 11:00:00 - - - - - - -
17.01.2018 10:00:00 - - - - - - -
17.01.2018 09:00:00 -7,7 -9,6 7 4 SSE 1018,6 4,0
17.01.2018 08:00:00 - - - - - - -
17.01.2018 07:00:00 - - - - - - -
17.01.2018 06:00:00 -8,2 -9,8 7 4 SE 1020,2 -
17.01.2018 05:00:00 - - - - - - -
17.01.2018 04:00:00 - - - - - - -
17.01.2018 03:00:00 -8,2 -10,4 7 4 SE 1022,1 -
17.01.2018 02:00:00 - - - - - - -
17.01.2018 01:00:00 - - - - - - -
17.01.2018 00:00:00 -8,2 -10,7 7 4 SSE 1024,1 -
16.01.2018 23:00:00 - - - - - - -
16.01.2018 22:00:00 - - - - - - -
16.01.2018 21:00:00 -8,0 -11,1 11 6 SSE 1025,7 -
16.01.2018 20:00:00 - - - - - - -
16.01.2018 19:00:00 - - - - - - -
16.01.2018 18:00:00 -8,3 -12,0 7 4 SE 1027,6 -
16.01.2018 17:00:00 - - - - - - -
16.01.2018 16:00:00 - - - - - - -
16.01.2018 15:00:00 -8,1 -11,2 7 4 ESE 1029,5 10
16.01.2018 14:00:00 - - - - - - -
16.01.2018 13:00:00 - - - - - - -
16.01.2018 12:00:00 -6,7 -10,1 7 4 S 1031,4 10
16.01.2018 11:00:00 - - - - - - -
16.01.2018 10:00:00 - - - - - - -
16.01.2018 09:00:00 -7,5 -9,7 4 2 SSE 1032,1 10
16.01.2018 08:00:00 - - - - - - -
16.01.2018 07:00:00 - - - - - - -
16.01.2018 06:00:00 -7,6 -9,8 4 2 S 1033,2 -
16.01.2018 05:00:00 - - - - - - -
16.01.2018 04:00:00 - - - - - - -
16.01.2018 03:00:00 -6,0 -8,6 7 4 S 1034,5 -
16.01.2018 02:00:00 - - - - - - -
16.01.2018 01:00:00 - - - - - - -
16.01.2018 00:00:00 -5,1 -7,3 4 2 S 1035,1 -
15.01.2018 23:00:00 - - - - - - -
15.01.2018 22:00:00 - - - - - - -
15.01.2018 21:00:00 -4,0 -6,5 7 4 S 1035,4 -
15.01.2018 20:00:00 - - - - - - -
15.01.2018 19:00:00 - - - - - - -
15.01.2018 18:00:00 -3,9 -5,7 4 2 SSE 1036,2 -
15.01.2018 17:00:00 - - - - - - -
15.01.2018 16:00:00 - - - - - - -
15.01.2018 15:00:00 -3,4 -5,1 4 2 E 1037,0 4,0
15.01.2018 14:00:00 - - - - - - -
15.01.2018 13:00:00 - - - - - - -
15.01.2018 12:00:00 -3,2 -5,3 4 2 SE 1038,0 10
15.01.2018 11:00:00 - - - - - - -
15.01.2018 10:00:00 - - - - - - -
15.01.2018 09:00:00 -4,2 -5,4 4 2 E 1038,6 4,0
15.01.2018 08:00:00 - - - - - - -
15.01.2018 07:00:00 - - - - - - -
15.01.2018 06:00:00 -4,5 -5,3 4 2 NNE 1038,9 -

tt = Température de l'air
td = dewpoint
ff = Vitesse du vent
dd = Direction du vent
ppp = reduced air pressure
vv = visibility

stations d'obs. à proximité